Thunder radar more information blitzortung!


Löydät sääaseman tiedot myös:

European Weather Network

Finland Weather Exchange

Weather Underground

AWEKAS



Weather Underground säähistoriasivu

Päivittäin yhteenveto Joulukuu 9, 2017 Yksiköt:  Englantilaiset    Metriset   Molemmat
« Edellinen Päivä
Seuraava Päivä »
Päivittäin Viikoittain Kuukausittain Vuosittain Mukautettu
  Korkea: Matala: Keskiarvo:
Lämpötila: TemperatureC °F 1.4 °F 2.1 °F
Kastepiste: DewpointC °F 0.7 °F 1.3 °F
Kosteus: Humidity % 92 % 93 %
Tuulen nopeus: WindSpeedKMH mph 3.2 mph 5.1 mph
Tuulenpuuska: WindSpeedGustKMH mph - -
Tuuli:- - South
Ilmanpaine: PressurehPa in 982.6 in -
Sade: 0.0 in    
Historical Graphs
 
 
Taulukkotiedot Joulukuu 9, 2017
Aika Lämpötila Kastepiste Ilmanpaine Tuuli Tuulen nopeus Tuulenpuuska Kosteus Sademäärä (tunneittain)
TemperatureC °F DewpointC °F PressurehPa in Calm     Humidity % HourlyPrecipMM in
00:00 2.7 °F 1.7 °F 982.6 in South 8.0 mph 20.9 mph 93 % 0.0 in
00:15 2.7 °F 1.6 °F 982.6 in SSE 4.8 mph 14.5 mph 93 % 0.0 in
00:30 2.6 °F 1.7 °F 982.6 in South 6.4 mph 16.1 mph 94 % 0.0 in
00:45 2.5 °F 1.6 °F 983.0 in SSE 4.8 mph 16.1 mph 94 % 0.0 in
01:00 2.4 °F 1.5 °F 983.0 in SSE 4.8 mph 14.5 mph 94 % 0.0 in
01:30 2.3 °F 1.6 °F 983.0 in South 3.2 mph 12.9 mph 95 % 0.0 in
01:45 2.3 °F 1.7 °F 983.0 in South 3.2 mph 9.7 mph 96 % 0.0 in
02:00 2.4 °F 1.8 °F 983.0 in South 6.4 mph 17.7 mph 96 % 0.0 in
02:15 2.4 °F 1.9 °F 983.3 in SSE 9.7 mph 20.9 mph 96 % 0.0 in
02:45 2.3 °F 1.6 °F 983.3 in SSE 8.0 mph 20.9 mph 95 % 0.0 in
03:00 2.2 °F 1.7 °F 983.3 in SSE 4.8 mph 14.5 mph 96 % 0.0 in
03:30 2.2 °F 1.5 °F 983.3 in South 6.4 mph 14.5 mph 95 % 0.0 in
03:45 2.3 °F 1.6 °F 983.6 in South 6.4 mph 20.9 mph 95 % 0.0 in
04:00 2.3 °F 1.5 °F 983.6 in South 4.8 mph 19.3 mph 94 % 0.0 in
04:15 2.3 °F 1.4 °F 983.6 in SSE 4.8 mph 20.9 mph 94 % 0.0 in
04:30 2.3 °F 1.4 °F 983.6 in South 4.8 mph 24.1 mph 94 % 0.0 in
04:45 2.4 °F 1.5 °F 983.6 in South 6.4 mph 17.7 mph 94 % 0.0 in
05:00 2.4 °F 1.6 °F 984.0 in South 4.8 mph 19.3 mph 94 % 0.0 in
05:30 2.4 °F 1.6 °F 984.0 in South 4.8 mph 19.3 mph 94 % 0.0 in
05:45 2.4 °F 1.4 °F 984.0 in South 4.8 mph 11.3 mph 93 % 0.0 in
06:00 2.4 °F 1.4 °F 984.0 in SSE 4.8 mph 19.3 mph 93 % 0.0 in
06:15 2.4 °F 1.4 °F 984.0 in South 6.4 mph 17.7 mph 93 % 0.0 in
06:45 2.5 °F 1.3 °F 984.3 in South 6.4 mph 19.3 mph 92 % 0.0 in
07:00 2.5 °F 1.3 °F 984.0 in South 6.4 mph 19.3 mph 92 % 0.0 in
07:15 2.4 °F 1.3 °F 984.3 in South 8.0 mph 20.9 mph 92 % 0.0 in
07:30 2.3 °F 1.2 °F 984.3 in SE 6.4 mph 27.4 mph 92 % 0.0 in
08:00 2.3 °F 1.2 °F 984.6 in South 4.8 mph 17.7 mph 92 % 0.0 in
08:15 2.3 °F 1.3 °F 984.6 in South 3.2 mph 17.7 mph 93 % 0.0 in
08:30 2.2 °F 1.2 °F 984.6 in South 4.8 mph 16.1 mph 93 % 0.0 in
08:45 2.2 °F 1.3 °F 985.0 in SSE 4.8 mph 11.3 mph 94 % 0.0 in
09:00 2.2 °F 1.4 °F 985.0 in SSE 3.2 mph 11.3 mph 94 % 0.0 in
09:45 2.2 °F 1.4 °F 985.3 in SSE 3.2 mph 14.5 mph 94 % 0.0 in
10:00 2.3 °F 1.4 °F 985.3 in SSE 3.2 mph 17.7 mph 94 % 0.0 in
10:15 2.3 °F 1.4 °F 985.7 in SSE 3.2 mph 22.5 mph 94 % 0.0 in
10:30 2.2 °F 1.4 °F 985.7 in SSE 4.8 mph 17.7 mph 94 % 0.0 in
11:00 2.2 °F 1.2 °F 986.0 in South 6.4 mph 14.5 mph 93 % 0.0 in
11:15 2.2 °F 1.2 °F 986.0 in South 4.8 mph 14.5 mph 93 % 0.0 in
11:30 2.2 °F 1.4 °F 986.0 in South 6.4 mph 19.3 mph 94 % 0.0 in
11:45 2.3 °F 1.4 °F 986.3 in South 4.8 mph 20.9 mph 94 % 0.0 in
12:00 2.2 °F 1.4 °F 986.3 in South 4.8 mph 20.9 mph 94 % 0.0 in
12:15 2.3 °F 1.3 °F 986.3 in South 3.2 mph 16.1 mph 93 % 0.0 in
12:30 2.2 °F 1.4 °F 986.7 in South 4.8 mph 17.7 mph 94 % 0.0 in
13:15 2.2 °F 1.4 °F 986.7 in South 3.2 mph 11.3 mph 94 % 0.0 in
13:30 2.3 °F 1.3 °F 986.7 in South 4.8 mph 19.3 mph 93 % 0.0 in
13:45 2.3 °F 1.3 °F 986.7 in South 4.8 mph 14.5 mph 93 % 0.0 in
14:00 2.2 °F 1.3 °F 986.7 in South 4.8 mph 16.1 mph 94 % 0.0 in
14:15 2.2 °F 1.3 °F 987.0 in South 4.8 mph 17.7 mph 94 % 0.0 in
14:30 2.2 °F 1.3 °F 987.0 in South 4.8 mph 14.5 mph 94 % 0.0 in
14:45 2.1 °F 1.1 °F 987.0 in South 8.0 mph 22.5 mph 93 % 0.0 in
15:30 1.8 °F 1.1 °F 987.4 in South 4.8 mph 12.9 mph 95 % 0.0 in
15:45 1.9 °F 1.2 °F 987.7 in South 4.8 mph 16.1 mph 95 % 0.0 in
16:00 1.9 °F 1.2 °F 987.7 in South 4.8 mph 12.9 mph 95 % 0.0 in
16:15 2.1 °F 1.4 °F 987.7 in South 4.8 mph 19.3 mph 95 % 0.0 in
16:30 2.2 °F 1.5 °F 987.7 in South 4.8 mph 17.7 mph 95 % 0.0 in
17:00 2.2 °F 1.3 °F 988.0 in SSE 4.8 mph 17.7 mph 94 % 0.0 in
17:15 2.2 °F 1.4 °F 988.0 in South 4.8 mph 16.1 mph 94 % 0.0 in
17:30 2.3 °F 1.4 °F 988.0 in South 4.8 mph 14.5 mph 94 % 0.0 in
17:45 2.4 °F 1.4 °F 988.0 in South 3.2 mph 14.5 mph 93 % 0.0 in
18:00 2.5 °F 1.5 °F 988.0 in South 6.4 mph 14.5 mph 93 % 0.0 in
18:15 2.4 °F 1.4 °F 988.0 in SSE 4.8 mph 20.9 mph 93 % 0.0 in
18:30 2.4 °F 1.4 °F 988.0 in SSE 6.4 mph 22.5 mph 93 % 0.0 in
18:45 2.3 °F 1.3 °F 988.0 in South 6.4 mph 27.4 mph 93 % 0.0 in
19:00 2.2 °F 1.4 °F 988.0 in SSE 4.8 mph 19.3 mph 94 % 0.0 in
19:15 2.1 °F 1.2 °F 988.4 in SSE 6.4 mph 20.9 mph 94 % 0.0 in
19:30 2.0 °F 1.1 °F 988.4 in SSE 4.8 mph 16.1 mph 94 % 0.0 in
20:30 1.9 °F 1.2 °F 988.7 in SSE 4.8 mph 17.7 mph 95 % 0.0 in
20:45 1.9 °F 1.2 °F 989.1 in SSE 4.8 mph 22.5 mph 95 % 0.0 in
21:00 1.8 °F 1.1 °F 989.1 in South 3.2 mph 12.9 mph 95 % 0.0 in
21:15 1.7 °F 1.0 °F 989.1 in South 4.8 mph 14.5 mph 95 % 0.0 in
21:30 1.7 °F 1.0 °F 989.1 in South 4.8 mph 17.7 mph 95 % 0.0 in
21:45 1.7 °F 1.0 °F 989.1 in South 6.4 mph 19.3 mph 95 % 0.0 in
22:00 1.8 °F 1.1 °F 989.4 in SSE 6.4 mph 20.9 mph 95 % 0.0 in
22:30 1.6 °F 0.9 °F 989.4 in South 3.2 mph 17.7 mph 95 % 0.0 in
22:45 1.5 °F 0.8 °F 989.7 in SSE 4.8 mph 19.3 mph 95 % 0.0 in
23:00 1.4 °F 0.7 °F 989.7 in SSE 4.8 mph 16.1 mph 95 % 0.0 in
23:15 1.4 °F 0.9 °F 989.7 in SSE 4.8 mph 14.5 mph 96 % 0.0 in
23:30 1.4 °F 0.9 °F 989.7 in South 4.8 mph 14.5 mph 96 % 0.0 in
23:45 1.5 °F 0.9 °F 990.1 in South 6.4 mph 16.1 mph 96 % 0.0 in
Esan sääasema
Terveisin Weather Underground - 2.75 mb

Alkuperäinen skripti  Jim McMurry - jmcmurry@mwt.net Sovitettu myös templatelle  Wim van der Kuil - Leuven-Template.eu

Laitteet joita käytämme:

Sääasema
Davis VP2

Sääasemaohjelma
Cumulus

Sääaseman tietokone
Asus EeePC

Palveluntarjoaja
Suncomet

Davis VP2

Cumulus

Asus EeePC

Suncomet